Weather History for Central Park, NY

Change the Weather History Date:

Tuesday, December 3, 2013

  Actual Average Record
Temperature  
Mean Temperature 46 °F 42 °F  
Max Temperature 53 °F 47 °F 69 °F (1998)
Min Temperature 38 °F 36 °F 9 °F (1976)
Degree Days  
Heating Degree Days 19 23  
Month to date heating degree days 61 69  
Since 1 July heating degree days 869 902  
Cooling Degree Days 0 0  
Month to date cooling degree days 0 0  
Year to date cooling degree days 1271 1105  
Moisture  
Dew Point 34 °F    
Average Humidity 66    
Maximum Humidity 86    
Minimum Humidity 46    
Precipitation  
Precipitation 0.00 in 0.15 in 1.63 in (1925)
Month to date precipitation 0.00 0.43  
Year to date precipitation 41.47 46.37  
Snow  
Snow 0.00 in 0.00 in 3.00 in (1903)
Month to date snowfall 0.0 0.2  
Since 1 July snowfall T 0.5  
Snow Depth 0.00 in    
Sea Level Pressure  
Sea Level Pressure 29.93 in    
Wind  
Wind Speed 3 mph (North)    
Max Wind Speed 8 mph    
Max Gust Speed 12 mph    
Visibility 7 miles    
Events      
T = Trace of Precipitation, MM = Missing Value Source: NWS Daily Summary

Daily Weather History Graph

Daily Weather History Graph

Search for Another Location

Airport:

Trip Planner

Search our weather history database for the weather conditions in past years. The results will help you decide how hot, cold, wet, or windy it might be!

Date:

Astronomy

Dec. 03, 2013 Rise Set
Actual Time 7:02 AM EST 4:28 PM EST
Civil Twilight 6:32 AM EST 4:59 PM EST
Nautical Twilight 5:58 AM EST 5:33 PM EST
Astronomical Twilight 5:25 AM EST 6:06 PM EST
Moon 7:29 AM EST (12/3) 5:29 PM EST (12/3)
Length of Visible Light 10h 26m
Length of Day
9h 25m
New Moon, 1% of the Moon is Illuminated
Dec 3
New Moon
Dec 9
First Quarter
Dec 17
Full
Dec 25
Last Quarter
Jan 1
New

Hourly Weather History & Observations

Time (EST) Temp. Windchill Dew Point Humidity Pressure Visibility Wind Dir Wind Speed Gust Speed Precip Events Conditions
12:51 AM 42.1 °F 40.2 °F 35.1 °F 76% 29.89 in 7.0 mi NE 3.5 mph - N/A   Partly Cloudy
1:51 AM 41.0 °F - 37.0 °F 86% 29.90 in 6.0 mi Calm Calm - N/A   Mostly Cloudy
2:51 AM 41.0 °F - 36.0 °F 82% 29.91 in 5.0 mi Calm Calm - N/A   Haze
3:51 AM 41.0 °F 38.0 °F 36.0 °F 82% 29.91 in 6.0 mi NNE 4.6 mph - N/A   Haze
4:51 AM 39.9 °F 36.7 °F 35.1 °F 83% 29.90 in 6.0 mi NNE 4.6 mph - N/A   Haze
5:51 AM 39.9 °F 37.8 °F 34.0 °F 79% 29.90 in 7.0 mi NNE 3.5 mph - N/A   Clear
6:51 AM 39.9 °F - 34.0 °F 79% 29.91 in 6.0 mi Calm Calm - N/A   Haze
7:51 AM 37.9 °F 35.5 °F 33.1 °F 83% 29.92 in 5.0 mi WNW 3.5 mph - N/A   Haze
8:51 AM 41.0 °F 39.0 °F 34.0 °F 76% 29.93 in 6.0 mi WNW 3.5 mph - N/A   Haze
9:51 AM 42.1 °F 40.2 °F 33.1 °F 70% 29.94 in 6.0 mi NW 3.5 mph - N/A   Haze
10:51 AM 46.0 °F - 33.1 °F 61% 29.93 in 6.0 mi Calm Calm - N/A   Haze
11:51 AM 48.9 °F - 33.1 °F 54% 29.92 in 6.0 mi WNW 3.5 mph - N/A   Haze
12:51 PM 51.1 °F - 33.1 °F 50% 29.90 in 7.0 mi WNW 4.6 mph - N/A   Clear
1:51 PM 52.0 °F - 32.0 °F 47% 29.88 in 7.0 mi Calm Calm - N/A   Clear
2:51 PM 53.1 °F - 33.1 °F 47% 29.88 in 9.0 mi WSW 8.1 mph - N/A   Clear
3:51 PM 53.1 °F - 33.1 °F 47% 29.91 in 8.0 mi Calm Calm - N/A   Clear
4:51 PM 52.0 °F - 33.1 °F 49% 29.93 in 10.0 mi Variable 3.5 mph - N/A   Clear
5:51 PM 52.0 °F - 33.1 °F 49% 29.95 in 9.0 mi WNW 4.6 mph - N/A   Clear
6:51 PM 50.0 °F - 32.0 °F 50% 29.96 in 10.0 mi Calm Calm - N/A   Clear
7:51 PM 46.0 °F 43.1 °F 35.1 °F 66% 29.97 in 8.0 mi NE 5.8 mph - N/A   Clear
8:51 PM 45.0 °F 43.5 °F 34.0 °F 65% 29.97 in 8.0 mi ENE 3.5 mph - N/A   Clear
9:51 PM 45.0 °F 41.8 °F 34.0 °F 65% 29.99 in 8.0 mi NNE 5.8 mph - N/A   Clear
10:51 PM 43.0 °F 41.3 °F 34.0 °F 71% 30.00 in 7.0 mi NE 3.5 mph - N/A   Clear
11:51 PM 43.0 °F 40.3 °F 34.0 °F 71% 30.01 in 7.0 mi NNE 4.6 mph - N/A   Clear